Showing default

COSMOS 83, 1573

Orbit data source: Space-Track

COSMOS 83, 1573 is a payload satellite owned by OKB-10 (CIS) in LEO that was launched on Fri, 03 Sep 1965 UTC via a KOSMOS 65S3 launch vehicle from the Tyuratam Missile And Space Complex (TTMTR). Payload-class satellites include a variety of spacecraft equipped with specific instruments for various scientific and technological missions. These include communications satellites like Starlink; space stations such as the ISS; scientific satellites like the Hubble; Earth observation satellites from companies like Planet Labs, Umbra, and HawkEye 360; GPS; miniature CubeSats for education and research; and military/defense satellites.

Loading next visibility...
Identifier
1573, 1965-070D
Orbit
LEO
Country
Flag of CISCIS
Related business
Manufacturer
OKB-10
Mission
Defense Communications
Bus & Motor
STRELA-1 11F610, Unknown motor
Mass
50 kg wet, 50 kg dry
Launch date (UTC)
1965-09-03 (60 years ago)
Launch vehicle
KOSMOS 65S3
Launch site
Tyuratam Missile And Space Complex (TTMTR)
Object type
Payload
Rocket body
Debris
Shape & HBR
Poly, 0.4 m
Radar Cross Section
0.731 m², Medium (>0.1 m² and < 1m²)

Expand to show TLE details & history
Last TLE update: 16 hours ago

TLE from 16 hours ago
0 COSMOS 83
1 01573U 65070D   25257.57984596 -.00000095  00000-0 -97376-5 0  9991
2 01573  56.0574 355.1394 0069168  71.3272 289.5123 12.41041232720994
Epoch: 2025-09-14T13:54Z
TLE epoch observation values (Epoch: 2025-09-14T13:54:58.69Z)
Latitude
-0.00006°
Longitude
152.598°
Altitude
1,485.372 km
Speed
7.13 km/s
True Right ascension
23h 40m 33s
True Declination
0° 00' 00"
Sunlit
Object was in full shadow at epoch
Visualization orbit readout
Latitude
Unknown
Longitude
Unknown
Altitude
Unknown
Speed
Unknown
Apparent Right ascension
Unknown
Apparent Declination
Unknown
Sunlit
N/A
Visualization observer readout
Local Sidereal Time
22:59:17
Azimuth
Unknown
Elevation
Unknown
Doppler factor
Unknown
Orbital elements
Apogee altitude
1,556.522 km
Perigee altitude
1,447.511 km
Semi-major axis
7,880.153 km
Eccentricity
0.00692
Inclination
56.0574°
RAAN
355.1394°
Arg. of periapsis
71.3272°
True anomaly
288.76307°
Mean anomaly
289.5123°
Eccentric anomaly
289.1379°
Mean motion
3.10271 °/min
Orbital period
116.03 mins
BSTAR
-0.0000097376
Loading maneuver chart data...
Computing Atmospheric mass density...
Loading historical data...
Loading historical data...
Loading historical data...
Loading historical data...
Loading historical data...
Loading historical data...
Loading historical data...
Other satellites on launch #70 in the year 1965 (1965-09-03 UTC)

Documentation

Showing up to 5 results
|